Hourly Weather Celinnyy

Today, 12 June, Saturday

Time Temperature Precipitation Wind Pressure Humidity
00:00 +13°C° 0 mm 3 mps 732 mmHg 79%
01:00 +13°C° 0 mm 3 mps 732 mmHg 75%
02:00 +13°C° 0 mm 3 mps 732 mmHg 75%
03:00 +12°C° 0 mm 3 mps 732 mmHg 76%
04:00 +12°C° 0 mm 3 mps 732 mmHg 77%
05:00 +13°C° 0 mm 3 mps 732 mmHg 74%
06:00 +13°C° 0 mm 3 mps 732 mmHg 71%
07:00 +14°C° 0 mm 3 mps 733 mmHg 68%
08:00 +17°C° 0 mm 4 mps 733 mmHg 61%
09:00 +19°C° 0 mm 5 mps 733 mmHg 54%
10:00 +20°C° 0 mm 6 mps 733 mmHg 46%
11:00 +22°C° 0 mm 6 mps 733 mmHg 44%
12:00 +23°C° 0 mm 6 mps 733 mmHg 41%
13:00 +24°C° 0 mm 7 mps 732 mmHg 38%
14:00 +26°C° 0 mm 7 mps 732 mmHg 38%
15:00 +26°C° 0 mm 6 mps 732 mmHg 38%
16:00 +27°C° 0 mm 6 mps 732 mmHg 38%
17:00 +24°C° 0 mm 6 mps 732 mmHg 41%
18:00 +23°C° 0 mm 6 mps 731 mmHg 44%
19:00 +21°C° 0 mm 6 mps 731 mmHg 47%
20:00 +20°C° 0 mm 5 mps 732 mmHg 50%
21:00 +20°C° 0 mm 4 mps 732 mmHg 53%
22:00 +19°C° 0 mm 3 mps 732 mmHg 56%
23:00 +18°C° 0 mm 2 mps 732 mmHg 59%

Tomorrow, 13 June, Sunday

Time Temperature Precipitation Wind Pressure Humidity
00:00 +17°C° 0 mm 2 mps 732 mmHg 62%
01:00 +16°C° 0 mm 1 mps 733 mmHg 66%
02:00 +16°C° 0.2 mm 1 mps 733 mmHg 66%
03:00 +15°C° 0.2 mm 1 mps 733 mmHg 67%
04:00 +15°C° 0.2 mm 1 mps 734 mmHg 68%
05:00 +15°C° 0.8 mm 1 mps 734 mmHg 71%
06:00 +15°C° 0.8 mm 1 mps 734 mmHg 74%
07:00 +15°C° 0.8 mm 1 mps 734 mmHg 78%
08:00 +16°C° 0 mm 1 mps 734 mmHg 72%
09:00 +16°C° 0 mm 2 mps 734 mmHg 67%
10:00 +17°C° 0 mm 2 mps 735 mmHg 62%
11:00 +18°C° 0 mm 3 mps 735 mmHg 57%
12:00 +20°C° 0 mm 3 mps 734 mmHg 52%
13:00 +21°C° 0 mm 3 mps 734 mmHg 46%
14:00 +22°C° 0 mm 3 mps 734 mmHg 47%
15:00 +22°C° 0 mm 3 mps 734 mmHg 49%
16:00 +24°C° 0 mm 3 mps 734 mmHg 50%
17:00 +22°C° 0 mm 3 mps 734 mmHg 53%
18:00 +21°C° 0 mm 3 mps 734 mmHg 57%
19:00 +21°C° 0 mm 3 mps 734 mmHg 61%
20:00 +19°C° 0 mm 2 mps 734 mmHg 60%
21:00 +18°C° 0 mm 2 mps 734 mmHg 60%
22:00 +16°C° 0 mm 1 mps 734 mmHg 59%
23:00 +18°C° 0 mm 1 mps 734 mmHg 57%

Day after tomorrow, 14 June, Monday

Time Temperature Precipitation Wind Pressure Humidity
00:00 +18°C° 0 mm 1 mps 734 mmHg 55%
01:00 +18°C° 0 mm 1 mps 734 mmHg 53%
02:00 +16°C° 0 mm 1 mps 734 mmHg 55%
03:00 +16°C° 0 mm 1 mps 734 mmHg 56%
04:00 +14°C° 0 mm 0 mps 734 mmHg 58%
05:00 +18°C° 0 mm 1 mps 735 mmHg 55%
06:00 +18°C° 0 mm 2 mps 735 mmHg 52%
07:00 +20°C° 0 mm 2 mps 735 mmHg 48%
08:00 +21°C° 0 mm 3 mps 735 mmHg 44%
09:00 +23°C° 0 mm 4 mps 735 mmHg 40%
10:00 +26°C° 0 mm 4 mps 736 mmHg 35%
11:00 +26°C° 0 mm 4 mps 735 mmHg 34%
12:00 +27°C° 0 mm 4 mps 735 mmHg 32%
13:00 +28°C° 0 mm 4 mps 735 mmHg 30%
14:00 +28°C° 0 mm 4 mps 735 mmHg 30%
15:00 +29°C° 0 mm 4 mps 735 mmHg 31%
16:00 +29°C° 0 mm 4 mps 735 mmHg 31%
17:00 +28°C° 0 mm 3 mps 734 mmHg 36%
18:00 +26°C° 0 mm 2 mps 734 mmHg 42%
19:00 +25°C° 0 mm 2 mps 734 mmHg 47%
20:00 +24°C° 0 mm 1 mps 734 mmHg 49%
21:00 +22°C° 0 mm 1 mps 734 mmHg 50%
22:00 +20°C° 0 mm 1 mps 734 mmHg 51%
23:00 +20°C° 0 mm 1 mps 734 mmHg 51%

15 June, Tuesday

Time Temperature Precipitation Wind Pressure Humidity
00:00 +19°C° 0 mm 1 mps 733 mmHg 52%
01:00 +18°C° 0 mm 1 mps 733 mmHg 52%
02:00 +18°C° 0 mm 1 mps 733 mmHg 53%
03:00 +16°C° 0 mm 0 mps 733 mmHg 55%
04:00 +15°C° 0 mm 0 mps 733 mmHg 56%
05:00 +19°C° 0 mm 1 mps 733 mmHg 54%
06:00 +21°C° 0 mm 1 mps 734 mmHg 52%
07:00 +22°C° 0 mm 1 mps 734 mmHg 50%
08:00 +24°C° 0 mm 2 mps 734 mmHg 47%
09:00 +25°C° 0 mm 2 mps 734 mmHg 44%
10:00 +27°C° 0 mm 3 mps 733 mmHg 41%
11:00 +28°C° 0 mm 3 mps 733 mmHg 38%
12:00 +29°C° 0 mm 4 mps 733 mmHg 35%
13:00 +29°C° 0 mm 4 mps 732 mmHg 32%
14:00 +30°C° 0 mm 4 mps 732 mmHg 32%
15:00 +30°C° 0 mm 4 mps 732 mmHg 31%
16:00 +30°C° 0 mm 4 mps 731 mmHg 31%
17:00 +29°C° 0 mm 3 mps 731 mmHg 37%
18:00 +28°C° 0 mm 2 mps 731 mmHg 42%
19:00 +27°C° 0 mm 1 mps 731 mmHg 48%
20:00 +25°C° 0 mm 1 mps 730 mmHg 49%
21:00 +22°C° 0 mm 0 mps 730 mmHg 50%
22:00 +20°C° 0 mm 0 mps 730 mmHg 51%
23:00 +19°C° 0 mm 0 mps 730 mmHg 51%

16 June, Wednesday

Time Temperature Precipitation Wind Pressure Humidity
00:00 +19°C° 0 mm 0 mps 730 mmHg 52%
01:00 +18°C° 0 mm 0 mps 730 mmHg 53%
02:00 +18°C° 0 mm 0 mps 730 mmHg 54%
03:00 +17°C° 0 mm 0 mps 730 mmHg 54%
04:00 +17°C° 0 mm 0 mps 730 mmHg 55%
05:00 +21°C° 0 mm 1 mps 730 mmHg 53%
06:00 +22°C° 0 mm 1 mps 730 mmHg 51%
07:00 +24°C° 0 mm 2 mps 730 mmHg 49%
08:00 +26°C° 0 mm 2 mps 730 mmHg 45%
09:00 +27°C° 0 mm 2 mps 730 mmHg 42%
10:00 +29°C° 0 mm 2 mps 730 mmHg 38%
11:00 +30°C° 0 mm 2 mps 730 mmHg 35%
12:00 +30°C° 0 mm 3 mps 730 mmHg 32%
13:00 +31°C° 0 mm 3 mps 730 mmHg 29%
14:00 +31°C° 0 mm 3 mps 730 mmHg 30%
15:00 +31°C° 0 mm 3 mps 729 mmHg 31%
16:00 +31°C° 0 mm 3 mps 729 mmHg 32%
17:00 +30°C° 0 mm 3 mps 729 mmHg 38%
18:00 +28°C° 0 mm 3 mps 729 mmHg 45%
19:00 +27°C° 0 mm 2 mps 728 mmHg 52%
20:00 +26°C° 0 mm 2 mps 728 mmHg 51%
21:00 +25°C° 0 mm 2 mps 728 mmHg 50%
22:00 +23°C° 0 mm 2 mps 728 mmHg 49%
23:00 +23°C° 0 mm 2 mps 728 mmHg 51%

17 June, Thursday

Time Temperature Precipitation Wind Pressure Humidity
00:00 +21°C° 0 mm 2 mps 728 mmHg 54%
01:00 +20°C° 0 mm 2 mps 727 mmHg 56%
02:00 +20°C° 0 mm 2 mps 727 mmHg 57%
03:00 +20°C° 0 mm 2 mps 727 mmHg 58%
04:00 +19°C° 0 mm 2 mps 726 mmHg 58%
05:00 +20°C° 0.1 mm 2 mps 726 mmHg 58%
06:00 +23°C° 0.1 mm 2 mps 726 mmHg 58%
07:00 +24°C° 0.1 mm 2 mps 726 mmHg 58%
08:00 +25°C° 0 mm 3 mps 726 mmHg 55%
09:00 +26°C° 0 mm 3 mps 726 mmHg 52%
10:00 +28°C° 0 mm 3 mps 725 mmHg 49%
11:00 +28°C° 0 mm 4 mps 725 mmHg 47%
12:00 +29°C° 0 mm 5 mps 725 mmHg 45%
13:00 +29°C° 0 mm 6 mps 725 mmHg 43%
14:00 +28°C° 0.1 mm 6 mps 725 mmHg 48%
15:00 +27°C° 0.1 mm 7 mps 725 mmHg 53%
16:00 +26°C° 0.1 mm 7 mps 724 mmHg 58%
17:00 +24°C° 0.3 mm 6 mps 724 mmHg 64%
18:00 +23°C° 0.3 mm 5 mps 725 mmHg 70%
19:00 +22°C° 0.3 mm 5 mps 725 mmHg 76%
20:00 +20°C° 0.3 mm 4 mps 725 mmHg 80%
21:00 +19°C° 0.3 mm 4 mps 726 mmHg 84%
22:00 +17°C° 0.3 mm 4 mps 726 mmHg 88%
23:00 +15°C° 0 mm 4 mps 726 mmHg 86%
Show more

We Need Your Consent

Meteoprog and our Service Providers may store and access personal data such as cookies, device identifiers or other similar technologies on your device and process such data to personalise content and ads, as well as provide social media features and to analyse the traffic.

  • Store and/or access information on your device

    Cookies, device identifiers or other information can be stored or accessed on your device for the purposes indicated above.

  • Personalised ads and content, ad and content measurement, audience insights, and products development

    Ads and content can be personalised based on a profile. More data can be added to better personalise ads and content. Ad and content performance can be measured. Insights about the audience who saw the ads and content can be derived. Such data can be used to develop or improve user’s experience, systems and software.

By clicking ‘I Agree’ you will allow the use of indicated cookies, device identifiers, web beacons or other similar technologies. Your settings can be changed in the browser on your device.

For certain purposes, legitimate interests may be relied on, rather than consent. You can read more about this in our Privacy and Cookie Policy.